DW8626 Madrid ES current weather conditions

sailwx.info

Wind from 003

Air temperature 9.4° C
Dewpoint 5.8° C

Last reported at 2015-Apr-28 04:47 UTC.
Time now 2015-Apr-28 05:21 UTC

Location: N 40°29' W 003°43'.
View on Google Maps.

See reports from other nearby stations

  
Tides and Currents Weather Stations Pressure Air Temp Water Temp Dewpoint Dewpoint Depression Visibility Wind Speed Wind Dir Waves Ship Positions
date/time (UTC)wind fromknots sea level pressurealtimeterstation pressurevisibilityair tempwater tempwave heightnotes
2015-Apr-28 04:47 003 9.4
2015-Apr-28 04:33 084 10.0
2015-Apr-28 04:17 103 10.0
2015-Apr-28 04:02 101 10.0
2015-Apr-28 03:47 110 10.0
2015-Apr-28 03:33 037 9.4
2015-Apr-28 03:20 032 9.4
2015-Apr-28 03:03 006 8.9
2015-Apr-28 02:47 342 9.4
2015-Apr-28 02:32 114 10.0
2015-Apr-28 02:17 115 10.0
2015-Apr-28 02:03 131 9.4
2015-Apr-28 01:48 131 10.0
2015-Apr-28 01:33 098 10.0
2015-Apr-28 01:17 299 8.9
2015-Apr-28 01:03 297 9.4
2015-Apr-28 00:50 300 10.0
2015-Apr-28 00:33 160 11.1
2015-Apr-28 00:17 073 11.1
2015-Apr-28 00:03 075 11.1
2015-Apr-27 23:47 075 11.1
2015-Apr-27 23:32 098 0 gusting 4 11.7
2015-Apr-27 23:18 099 11.7
2015-Apr-27 23:03 066 0 gusting 1 11.7
2015-Apr-27 22:47 084 11.7
2015-Apr-27 22:20 098 11.7
2015-Apr-27 22:03 288 12.2
2015-Apr-27 21:48 027 12.2
2015-Apr-27 21:33 267 12.8
2015-Apr-27 21:17 311 1 gusting 6 12.8
2015-Apr-27 21:03 272 3 gusting 6 12.8
2015-Apr-27 20:48 283 1 gusting 7 12.8
2015-Apr-27 20:33 271 3 gusting 5 12.8
2015-Apr-27 20:17 284 1 gusting 5 12.8
2015-Apr-27 20:03 252 3 gusting 4 12.8
2015-Apr-27 19:33 254 0 gusting 3 12.8
2015-Apr-27 19:17 183 13.3
2015-Apr-27 19:03 276 3 gusting 9 13.9
2015-Apr-27 18:49 298 4 gusting 9 13.9
2015-Apr-27 18:34 215 3 gusting 9 13.9
2015-Apr-27 17:49 271 15.6
2015-Apr-27 17:17 276 2 gusting 8 16.1
2015-Apr-27 16:32 284 4 gusting 9 15.6
2015-Apr-27 16:17 243 1 gusting 10 15.0
2015-Apr-27 16:03 315 2 gusting 10 15.0
2015-Apr-27 15:49 252 2 gusting 8 15.0
2015-Apr-27 15:34 274 0 gusting 10 14.4
2015-Apr-27 15:19 263 1 gusting 6 14.4
2015-Apr-27 15:03 297 1 gusting 4 13.9
2015-Apr-27 14:51 240 4 gusting 8 13.9
2015-Apr-27 14:33 235 12 gusting 13 13.9
2015-Apr-27 14:18 249 6 gusting 9 14.4
2015-Apr-27 14:02 305 4 gusting 10 14.4
2015-Apr-27 13:47 275 6 gusting 12 13.9
2015-Apr-27 13:33 186 3 gusting 13 14.4
2015-Apr-27 13:18 221 7 gusting 14 14.4
2015-Apr-27 13:03 305 2 gusting 11 14.4
2015-Apr-27 12:48 287 7 gusting 13 13.3
2015-Apr-27 12:02 300 3 gusting 13 13.3
2015-Apr-27 11:48 252 8 gusting 13 13.3
2015-Apr-27 11:33 276 3 gusting 16 13.3
2015-Apr-27 11:04 264 7 gusting 13 12.8
2015-Apr-27 10:48 269 8 gusting 13 12.8
2015-Apr-27 10:34 252 4 gusting 11 12.8
2015-Apr-27 09:33 265 6 gusting 13 12.8
2015-Apr-27 09:18 271 5 gusting 11 13.3
2015-Apr-27 09:03 252 0 gusting 16 12.8
2015-Apr-27 08:48 248 5 gusting 10 12.2
2015-Apr-27 08:33 314 6 gusting 16 11.7
2015-Apr-27 08:18 195 4 gusting 9 11.7
2015-Apr-27 08:03 278 4 gusting 9 11.1
2015-Apr-27 07:34 273 2 gusting 10 11.1
2015-Apr-27 07:04 236 7 gusting 10 10.0
2015-Apr-27 06:33 229 0 gusting 6 9.4
2015-Apr-27 06:18 173 3 gusting 7 9.4
2015-Apr-27 06:04 242 2 gusting 11 9.4
2015-Apr-27 05:34 262 1 gusting 9 9.4
2015-Apr-27 05:18 257 4 gusting 8 9.4
2015-Apr-27 05:03 276 0 gusting 3 8.9
2015-Apr-27 04:50 256 0 gusting 5 8.9
2015-Apr-27 04:33 262 2 gusting 6 8.9
2015-Apr-27 04:17 256 1 gusting 6 9.4
2015-Apr-27 04:03 267 3 gusting 12 9.4
2015-Apr-27 03:47 238 4 gusting 12 9.4
2015-Apr-27 03:33 276 3 gusting 10 9.4
2015-Apr-27 03:17 230 4 gusting 11 10.0
2015-Apr-27 03:02 258 2 gusting 12 9.4
2015-Apr-27 02:47 245 5 gusting 8 8.9
2015-Apr-27 02:20 253 5 gusting 7 8.9
2015-Apr-27 02:02 245 6 gusting 9 8.9
2015-Apr-27 01:47 274 1 gusting 6 8.9
2015-Apr-27 01:32 250 1 gusting 6 8.9
2015-Apr-27 01:17 246 3 gusting 7 8.9
2015-Apr-27 01:03 262 3 gusting 6 8.9
2015-Apr-27 00:47 272 6 gusting 9 8.9
2015-Apr-27 00:32 280 5 gusting 9 8.9
2015-Apr-27 00:17 239 3 gusting 9 8.9
2015-Apr-27 00:03 262 3 gusting 10 8.9
2015-Apr-26 23:50 204 1 gusting 4 8.9
2015-Apr-26 23:33 233 3 gusting 6 8.9
2015-Apr-26 23:17 233 1 gusting 6 9.4
2015-Apr-26 23:03 238 3 gusting 5 8.9
2015-Apr-26 22:47 260 2 gusting 6 8.9
2015-Apr-26 22:32 245 8.9
2015-Apr-26 22:17 240 1 gusting 6 8.9
2015-Apr-26 22:02 265 3 gusting 6 9.4
2015-Apr-26 21:47 266 1 gusting 6 9.4
2015-Apr-26 21:33 256 0 gusting 4 9.4
2015-Apr-26 21:19 262 6 gusting 8 9.4
2015-Apr-26 21:02 249 0 gusting 4 9.4
2015-Apr-26 20:47 213 1 gusting 6 9.4
2015-Apr-26 20:33 207 3 gusting 6 9.4
2015-Apr-26 20:18 246 2 gusting 6 9.4
2015-Apr-26 20:02 190 0 gusting 5 9.4
2015-Apr-26 19:47 233 2 gusting 7 9.4
2015-Apr-26 19:33 250 4 gusting 6 9.4
2015-Apr-26 19:18 245 0 gusting 8 9.4
2015-Apr-26 19:05 257 0 gusting 5 10.0
2015-Apr-26 18:18 238 1 gusting 4 10.0
2015-Apr-26 18:05 203 10.0
2015-Apr-26 17:19 278 1 gusting 2 9.4
2015-Apr-26 15:49 131 8 gusting 13 15.0
2015-Apr-26 15:33 195 8 gusting 14 14.4
2015-Apr-26 15:18 249 6 gusting 12 15.0
2015-Apr-26 15:04 169 6 gusting 11 14.4
2015-Apr-26 14:49 146 3 gusting 6 14.4
2015-Apr-26 14:34 231 5 gusting 6 13.9
2015-Apr-26 14:19 263 5 gusting 6 14.4
2015-Apr-26 13:34 134 11.7
2015-Apr-26 13:19 011 10.6
2015-Apr-26 10:18 205 9 gusting 12 12.2
2015-Apr-26 10:04 248 4 gusting 17 12.2
2015-Apr-26 09:35 256 5 gusting 12 11.7
2015-Apr-26 09:18 225 3 gusting 8 11.7
2015-Apr-26 08:19 256 5 gusting 10 11.7
2015-Apr-26 07:49 165 2 gusting 6 11.7
2015-Apr-26 07:34 203 3 gusting 7 11.1
2015-Apr-26 07:03 233 5 gusting 6 11.1
2015-Apr-26 05:02 198 4 gusting 7 11.1